YOUTHSAT

Satellite information

Favourite Embed

Satellite Type and Status

PAYLOADIN ORBIT

Key statistics

Satellite YOUTHSAT at a glance.

Uptime

5136

Days in orbit

Revolutions

≈ 14.3

Per day

Orbit

SSO

Sun Synchronous Orbit

Inclination

98.3

Latest

Satellite identification and parameters

Extended collection of information and parameters for YOUTHSAT.

Object identification

Identified? True

Debris? False

Object name: YOUTHSAT

International designator: 2011-015B

Object number (NORAD): 37388

Object ID (CCSDS): 37388

Country: INDIA (IND)

Current information (Y/N): Y

RCS size: MEDIUM

Orbital parameters

Period: 101.026 minutes

Inclination: 98.324 deg

SMA: 7185.36 km

Apoapsis: 818.621 km

Periapsis: 795.829 km

RAAN: 119.8307 deg

Eccentricy: 0.001586

Argument of periapsis: 82.4935 deg

Mean anomaly: 88.4644 deg

Mean motion: 14.25377678 rev/day

Mean motion (dot): 0.00000241 rev/day2

B* drag term: 0.00011931 1/REarth

Two-line elements (TLE)

Creation date: May 11, 2025, 10:21 p.m.

Reference frame: TEME

Reference center: EARTH

Epoch: May 11, 2025, 11:25 a.m. UTC

TLE line 0: 0 YOUTHSAT

TLE line 1: 1 37388U 11015B 25131.47608302 .00000241 00000-0 11931-3 0 9994

TLE line 2: 2 37388 98.3240 119.8307 0015860 82.4935 88.4644 14.25377678730405

Live tracking on map

Real-time ground track for satellite YOUTHSAT.

In-orbit conjunctions

There are no conjunctions computed for YOUTHSAT, at the moment. Check back to stay up to date, as we update our databases every day.

Go to all conjunctions

Associated space launch

YOUTHSAT was lifted into orbit during the mission ‘PSLV | Resourcesat-2’, on board a PSLV space rocket.

The launch took place on April 20, 2011, 4:42 a.m. from Satish Dhawan Space Centre First Launch Pad.

For more information about the launch, click the button.

Launch to space PSLV | Resourcesat-2
PSLV | Resourcesat-2

Agency: N/A

Status: Launch Successful

Launch date: April 20, 2011, 4:42 a.m. UTC

Rocket: PSLV

Launch pad: Satish Dhawan Space Centre First Launch Pad

Location: Satish Dhawan Space Centre, India

...

Latest news about this satellite

There are no fresh news available about this satellite. Check back as we update our databases every day.


Newsletter sign-up

Weekly statistics, charts and insights to help you stay on top of the space industry.